Weather History for Ogden Hill AFB, UT

Change the Weather History Date:

Sunday, December 16, 2012

  Actual Average Record
Temperature  
Mean Temperature 31 °F -  
Max Temperature 35 °F 32 °F 46 °F (1979)
Min Temperature 27 °F 20 °F 8 °F (2001)
Degree Days  
Heating Degree Days 34    
Moisture  
Dew Point 27 °F    
Average Humidity 84    
Maximum Humidity 100    
Minimum Humidity 65    
Precipitation  
Precipitation 0.03 in - - ()
Sea Level Pressure  
Sea Level Pressure 29.89 in    
Wind  
Wind Speed 9 mph (South)    
Max Wind Speed 18 mph    
Max Gust Speed -    
Visibility 8 miles    
Events Fog , Snow    
Averages and records for this station are not official NWS values.
T = Trace of Precipitation, MM = Missing Value Source: NWS Daily Summary

Daily Weather History Graph

Daily Weather History Graph

Search for Another Location

Airport:

Trip Planner

Search our weather history database for the weather conditions in past years. The results will help you decide how hot, cold, wet, or windy it might be!

Date:

Astronomy

Dec. 16, 2012 Rise Set
Actual Time 7:47 AM MST 5:00 PM MST
Civil Twilight 7:15 AM MST 5:31 PM MST
Nautical Twilight 6:41 AM MST 6:06 PM MST
Astronomical Twilight 6:07 AM MST 6:40 PM MST
Moon 10:21 AM MST (12/16) 9:20 PM MST (12/16)
Length of Visible Light 10h 15m
Length of Day
9h 13m
Waxing Crescent, 16% of the Moon is Illuminated
Dec 16
Waxing Crescent
Dec 19
First Quarter
Dec 28
Full
Jan 4
Last Quarter
Jan 11
New

Hourly Weather History & Observations

Time (MST) Temp. Windchill Dew Point Humidity Pressure Visibility Wind Dir Wind Speed Gust Speed Precip Events Conditions
12:05 AM 30.2 °F 23.4 °F 28.4 °F 93% 29.83 in 9.0 mi SSE 6.9 mph - N/A   Overcast
12:40 AM 30.2 °F 22.6 °F 28.4 °F 93% 29.82 in 10.0 mi SSE 8.1 mph - N/A   Overcast
12:49 AM 30.2 °F 21.9 °F 28.4 °F 93% 29.82 in 10.0 mi South 9.2 mph - N/A   Overcast
12:58 AM 29.8 °F 22.2 °F 28.6 °F 95% 29.84 in 8.0 mi South 8.1 mph - 0.00 in Snow Light Snow
1:03 AM 30.2 °F 22.6 °F 28.4 °F 93% 29.81 in 4.0 mi South 8.1 mph - N/A Snow Light Snow
1:18 AM 30.2 °F 21.3 °F 28.4 °F 93% 29.81 in 7.0 mi SSE 10.4 mph - N/A Snow Light Snow
1:22 AM 30.2 °F 21.3 °F 26.6 °F 86% 29.81 in 10.0 mi South 10.4 mph - N/A   Mostly Cloudy
1:27 AM 30.2 °F 21.9 °F 26.6 °F 86% 29.81 in 10.0 mi South 9.2 mph - N/A   Scattered Clouds
1:58 AM 29.8 °F 22.2 °F 26.2 °F 86% 29.84 in 10.0 mi South 8.1 mph - 0.00 in   Mostly Cloudy
2:08 AM 30.2 °F 24.3 °F 26.6 °F 86% 29.82 in 10.0 mi South 5.8 mph - N/A   Overcast
2:58 AM 29.3 °F 22.3 °F 26.4 °F 89% 29.84 in 10.0 mi SSE 6.9 mph - N/A   Mostly Cloudy
3:13 AM 30.2 °F 23.4 °F 26.6 °F 86% 29.82 in 10.0 mi South 6.9 mph - N/A   Scattered Clouds
3:30 AM 32.0 °F 24.8 °F 26.6 °F 80% 29.83 in 10.0 mi South 8.1 mph - N/A   Partly Cloudy
3:42 AM 32.0 °F 24.2 °F 26.6 °F 80% 29.83 in 10.0 mi South 9.2 mph - N/A   Mostly Cloudy
3:52 AM 32.0 °F 24.8 °F 26.6 °F 80% 29.83 in 10.0 mi South 8.1 mph - N/A   Mostly Cloudy
3:57 AM 32.0 °F 26.4 °F 26.6 °F 80% 29.84 in 9.0 mi SW 5.8 mph - N/A Snow Light Snow
3:58 AM 30.6 °F 25.8 °F 27.0 °F 86% 29.86 in 9.0 mi SW 4.6 mph - 0.00 in Snow Light Snow
4:03 AM 32.0 °F 27.5 °F 26.6 °F 80% 29.83 in 6.0 mi South 4.6 mph - N/A Snow Light Snow
4:13 AM 32.0 °F 24.2 °F 26.6 °F 80% 29.83 in 10.0 mi South 9.2 mph - N/A Snow Light Snow
4:25 AM 30.2 °F 21.9 °F 28.4 °F 93% 29.84 in 10.0 mi SSE 9.2 mph - N/A   Overcast
4:45 AM 30.2 °F 21.9 °F 28.4 °F 93% 29.84 in 10.0 mi SSE 9.2 mph - N/A   Overcast
4:58 AM 29.5 °F 21.8 °F 28.0 °F 94% 29.86 in 10.0 mi South 8.1 mph - 0.00 in   Overcast
5:03 AM 30.2 °F 21.9 °F 28.4 °F 93% 29.84 in 10.0 mi South 9.2 mph - N/A   Overcast
5:18 AM 30.2 °F 22.6 °F 28.4 °F 93% 29.84 in 10.0 mi South 8.1 mph - N/A   Overcast
5:28 AM 30.2 °F 21.9 °F 26.6 °F 86% 29.85 in 10.0 mi South 9.2 mph - N/A Snow Light Snow
5:58 AM 30.2 °F 22.6 °F 26.6 °F 86% 29.88 in 10.0 mi South 8.1 mph - 0.00 in Snow Light Snow
6:03 AM 30.2 °F 23.4 °F 26.6 °F 86% 29.86 in 10.0 mi SSW 6.9 mph - N/A Snow Light Snow
6:08 AM 30.2 °F 22.6 °F 26.6 °F 86% 29.86 in 10.0 mi South 8.1 mph - N/A Snow Light Snow
6:23 AM 30.2 °F 25.4 °F 26.6 °F 86% 29.87 in 9.0 mi SSW 4.6 mph - N/A Snow Light Snow
6:33 AM 30.2 °F - 26.6 °F 86% 29.87 in 5.0 mi SSW 2.3 mph - N/A Snow Light Snow
6:43 AM 30.2 °F 21.3 °F 26.6 °F 86% 29.87 in 5.0 mi SW 10.4 mph - N/A Snow Light Snow
6:48 AM 30.2 °F 21.3 °F 26.6 °F 86% 29.87 in 4.0 mi SW 10.4 mph - N/A Snow Light Snow
6:58 AM 29.1 °F 21.3 °F 26.8 °F 91% 29.91 in 4.0 mi WSW 8.1 mph - 0.01 in Snow Light Snow
7:03 AM 28.4 °F 21.2 °F 26.6 °F 93% 29.88 in 5.0 mi SW 6.9 mph - N/A Snow Light Snow
7:08 AM 28.4 °F 20.4 °F 26.6 °F 93% 29.88 in 4.0 mi WSW 8.1 mph - N/A Snow Light Snow
7:28 AM 28.4 °F 21.2 °F 26.6 °F 93% 29.88 in 5.0 mi SW 6.9 mph - N/A Snow Light Snow
7:33 AM 28.4 °F 22.2 °F 26.6 °F 93% 29.88 in 7.0 mi SSW 5.8 mph - N/A Snow Light Snow
7:38 AM 28.4 °F 22.2 °F 26.6 °F 93% 29.88 in 9.0 mi South 5.8 mph - N/A Snow Light Snow
7:57 AM 28.4 °F 22.2 °F 26.6 °F 93% 29.88 in 10.0 mi SSE 5.8 mph - N/A   Overcast
7:58 AM 27.9 °F 21.5 °F 26.4 °F 94% 29.92 in 10.0 mi SSE 5.8 mph - 0.00 in   Overcast
8:17 AM 28.4 °F 22.2 °F 26.6 °F 93% 29.88 in 8.0 mi ESE 5.8 mph - N/A   Mostly Cloudy
8:22 AM 28.4 °F 22.2 °F 26.6 °F 93% 29.87 in 10.0 mi ESE 5.8 mph - N/A   Mostly Cloudy
8:27 AM 28.4 °F 23.3 °F 28.4 °F 100% 29.88 in 10.0 mi ESE 4.6 mph - N/A   Mostly Cloudy
8:32 AM 28.4 °F 23.3 °F 28.4 °F 100% 29.88 in 10.0 mi SE 4.6 mph - N/A   Mostly Cloudy
8:58 AM 28.6 °F 20.7 °F 26.6 °F 92% 29.93 in 10.0 mi South 8.1 mph - 0.00 in   Overcast
9:03 AM 28.4 °F 19.7 °F 26.6 °F 93% 29.89 in 9.0 mi South 9.2 mph - N/A Snow Light Snow
9:08 AM 30.2 °F 22.6 °F 24.8 °F 80% 29.89 in 4.0 mi South 8.1 mph - N/A Snow Light Snow
9:18 AM 30.2 °F 21.9 °F 24.8 °F 80% 29.89 in 5.0 mi SSE 9.2 mph - N/A Snow Light Snow
9:23 AM 30.2 °F 21.9 °F 24.8 °F 80% 29.89 in 8.0 mi South 9.2 mph - N/A Snow Light Snow
9:38 AM 30.2 °F 21.3 °F 24.8 °F 80% 29.89 in 10.0 mi South 10.4 mph - N/A Snow Light Snow
9:48 AM 30.2 °F 21.9 °F 24.8 °F 80% 29.90 in 10.0 mi South 9.2 mph - N/A Snow Light Snow
9:58 AM 32.0 °F 24.2 °F 24.8 °F 75% 29.93 in 10.0 mi South 9.2 mph - 0.00 in Snow Light Snow
9:59 AM 32.0 °F 24.2 °F 24.8 °F 75% 29.90 in 10.0 mi South 9.2 mph - N/A   Mostly Cloudy
10:01 AM 32.0 °F 23.6 °F 24.8 °F 75% 29.90 in 10.0 mi South 10.4 mph - N/A Snow Light Snow
10:06 AM 32.0 °F 24.2 °F 24.8 °F 75% 29.91 in 9.0 mi South 9.2 mph - N/A Snow Light Snow
10:16 AM 32.0 °F 23.0 °F 26.6 °F 80% 29.91 in 8.0 mi South 11.5 mph - N/A Snow Light Snow
10:30 AM 32.0 °F 23.6 °F 26.6 °F 80% 29.91 in 9.0 mi South 10.4 mph - N/A   Mostly Cloudy
10:50 AM 32.0 °F 24.8 °F 26.6 °F 80% 29.92 in 10.0 mi SSE 8.1 mph - N/A   Mostly Cloudy
10:58 AM 31.1 °F 23.1 °F 27.0 °F 85% 29.95 in 10.0 mi SSE 9.2 mph - 0.00 in   Overcast
11:05 AM 32.0 °F 24.2 °F 26.6 °F 80% 29.92 in 10.0 mi SSE 9.2 mph - N/A   Overcast
11:16 AM 32.0 °F 23.6 °F 26.6 °F 80% 29.91 in 10.0 mi South 10.4 mph - N/A   Overcast
11:30 AM 32.0 °F 24.8 °F 26.6 °F 80% 29.92 in 10.0 mi SSE 8.1 mph - N/A   Overcast
11:40 AM 32.0 °F 23.6 °F 26.6 °F 80% 29.92 in 10.0 mi South 10.4 mph - N/A   Overcast
11:58 AM 32.0 °F 23.6 °F 27.0 °F 82% 29.96 in 7.0 mi SSW 10.4 mph - 0.00 in Snow Light Snow
12:08 PM 32.0 °F 23.0 °F 26.6 °F 80% 29.92 in 3.0 mi South 11.5 mph - N/A Snow Light Snow
12:13 PM 32.0 °F 23.6 °F 26.6 °F 80% 29.92 in 2.0 mi South 10.4 mph - N/A Snow Light Snow
12:18 PM 32.0 °F 24.2 °F 28.4 °F 87% 29.93 in 1.8 mi South 9.2 mph - N/A Snow Light Snow
12:23 PM 32.0 °F 24.8 °F 28.4 °F 87% 29.93 in 2.0 mi South 8.1 mph - N/A Snow Light Snow
12:28 PM 32.0 °F 24.8 °F 28.4 °F 87% 29.93 in 1.2 mi South 8.1 mph - N/A Snow Light Snow
12:33 PM 32.0 °F 24.2 °F 28.4 °F 87% 29.92 in 0.8 mi South 9.2 mph - N/A Snow Light Snow
12:38 PM 32.0 °F 22.5 °F 28.4 °F 87% 29.92 in 0.5 mi SSE 12.7 mph - N/A Fog , Snow Light Freezing Fog
12:48 PM 32.0 °F 23.6 °F 28.4 °F 87% 29.92 in 1.0 mi South 10.4 mph - N/A Snow Light Snow
12:53 PM 32.0 °F 23.0 °F 28.4 °F 87% 29.92 in 2.0 mi South 11.5 mph - N/A Snow Light Snow
12:58 PM 30.4 °F 21.0 °F 28.6 °F 93% 29.95 in 4.0 mi South 11.5 mph - 0.02 in Snow Light Snow
1:03 PM 32.0 °F 23.6 °F 28.4 °F 87% 29.92 in 5.0 mi SSE 10.4 mph - N/A Snow Light Snow
1:08 PM 32.0 °F 22.5 °F 28.4 °F 87% 29.92 in 7.0 mi SSE 12.7 mph - N/A Snow Light Snow
1:19 PM 30.2 °F 20.8 °F 28.4 °F 93% 29.92 in 10.0 mi SSE 11.5 mph - N/A   Overcast
1:37 PM 32.0 °F 22.5 °F 28.4 °F 87% 29.91 in 10.0 mi SSE 12.7 mph - N/A Snow Light Snow
1:58 PM 31.1 °F 20.5 °F 27.5 °F 87% 29.93 in 5.0 mi SSE 15.0 mph - 0.00 in Snow Light Snow
2:13 PM 32.0 °F 21.6 °F 26.6 °F 80% 29.90 in 6.0 mi SSE 15.0 mph - N/A Snow Light Snow
2:28 PM 32.0 °F 21.2 °F 28.4 °F 87% 29.90 in 4.0 mi SSE 16.1 mph - N/A Snow Light Snow
2:38 PM 32.0 °F 22.1 °F 28.4 °F 87% 29.90 in 2.5 mi SSE 13.8 mph - N/A Snow Light Snow
2:43 PM 32.0 °F 22.1 °F 28.4 °F 87% 29.90 in 3.0 mi SSE 13.8 mph - N/A Snow Light Snow
2:50 PM 32.0 °F 21.6 °F 28.4 °F 87% 29.90 in 3.0 mi South 15.0 mph - N/A   Overcast
2:58 PM 32.0 °F 22.1 °F 28.4 °F 87% 29.93 in 5.0 mi South 13.8 mph - 0.00 in   Overcast
3:02 PM 32.0 °F 22.5 °F 28.4 °F 87% 29.90 in 4.0 mi South 12.7 mph - N/A Snow Light Snow
3:12 PM 32.0 °F 22.5 °F 28.4 °F 87% 29.89 in 3.0 mi South 12.7 mph - N/A Snow Light Snow
3:17 PM 32.0 °F 21.6 °F 28.4 °F 87% 29.89 in 5.0 mi South 15.0 mph - N/A   Haze
3:48 PM 32.0 °F 21.6 °F 26.6 °F 80% 29.90 in 9.0 mi South 15.0 mph - N/A   Mostly Cloudy
3:58 PM 32.7 °F 23.0 °F 28.0 °F 83% 29.93 in 8.0 mi South 13.8 mph - 0.00 in   Overcast
4:06 PM 32.0 °F 22.5 °F 28.4 °F 87% 29.90 in 10.0 mi South 12.7 mph - N/A   Mostly Cloudy
4:11 PM 32.0 °F 22.1 °F 28.4 °F 87% 29.90 in 10.0 mi SSE 13.8 mph - N/A   Scattered Clouds
4:58 PM 31.8 °F 22.3 °F 27.7 °F 85% 29.93 in 10.0 mi SSE 12.7 mph - 0.00 in   Partly Cloudy
5:58 PM 32.5 °F 22.7 °F 26.1 °F 77% 29.93 in 10.0 mi South 13.8 mph - N/A   Clear
6:58 PM 32.9 °F 23.2 °F 25.2 °F 73% 29.93 in 10.0 mi South 13.8 mph - N/A   Scattered Clouds
7:03 PM 32.0 °F 22.1 °F 24.8 °F 75% 29.89 in 10.0 mi SSE 13.8 mph - N/A   Mostly Cloudy
7:08 PM 32.0 °F 21.6 °F 24.8 °F 75% 29.88 in 10.0 mi SSE 15.0 mph - N/A   Mostly Cloudy
7:48 PM 33.8 °F 23.9 °F 24.8 °F 70% 29.88 in 10.0 mi SSE 15.0 mph - N/A   Scattered Clouds
7:58 PM 34.0 °F 25.0 °F 25.5 °F 71% 29.91 in 10.0 mi South 12.7 mph - N/A   Mostly Cloudy
8:58 PM 34.0 °F 23.0 °F 26.1 °F 73% 29.92 in 10.0 mi South 18.4 mph - N/A   Mostly Cloudy
9:08 PM 33.8 °F 23.5 °F 26.6 °F 75% 29.88 in 10.0 mi South 16.1 mph - N/A   Scattered Clouds
9:18 PM 33.8 °F 22.8 °F 26.6 °F 75% 29.88 in 10.0 mi SSE 18.4 mph - N/A   Mostly Cloudy
9:23 PM 33.8 °F 23.2 °F 26.6 °F 75% 29.88 in 10.0 mi SSE 17.3 mph - N/A   Scattered Clouds
9:58 PM 34.7 °F 25.5 °F 25.7 °F 70% 29.89 in 10.0 mi SSE 13.8 mph - N/A   Clear
10:13 PM 35.6 °F 26.6 °F 24.8 °F 65% 29.86 in 10.0 mi South 13.8 mph - N/A   Mostly Cloudy
10:43 PM 35.6 °F 25.5 °F 24.8 °F 65% 29.87 in 10.0 mi South 17.3 mph - N/A   Overcast
10:48 PM 35.6 °F 25.5 °F 26.6 °F 70% 29.87 in 10.0 mi South 17.3 mph - N/A   Overcast
10:58 PM 34.9 °F 24.6 °F 26.1 °F 70% 29.89 in 10.0 mi South 17.3 mph - N/A   Overcast
11:58 PM 35.1 °F 24.5 °F 26.1 °F 70% 29.87 in 10.0 mi South 18.4 mph - N/A   Overcast